Miscellaneous Local Product
Issued by NWS North Platte, NE

Home | Current Version | Previous Version | Text Only | Print | Product List | Glossary On
Versions: 1 2 3 4 5 6 7 8 9 10 11 12 13 14 15 16 17 18 19 20 21 22 23 24 25 26 27 28 29 30 31 32 33 34 35 36 37 38 39 40 41 42 43 44 45 46 47 48 49 50
000
AXUS43 KLBF 252210
MISLBF


WESTERN AND NORTH CENTRAL NEBRASKA HOURLY WEATHER ROUNDUP
NATIONAL WEATHER SERVICE NORTH PLATTE NE
400 PM CST THU DEC 25 2014

***STATIONS NOT REPORTING VARIABLES SUCH AS SKY/WEATHER OR
PRESSURE ARE PROVIDED BY THE NEBRASKA DEPARTMENT OF
ROADS...RAWS...AND APRS NETWORKS...AND ARE NOT UNDER
NATIONAL WEATHER SERVICE QUALITY CONTROL***

...OBSERVATIONS IN AND NEAR THE EASTERN PANHANDLE OF NEBRASKA...

CITY           SKY/WX    TMP DP  RH WIND       PRES   REMARKS
PINE RIDGE     LGT SNOW  28  23  81 N18G29    29.73R WCI  15
CHADRON        CLOUDY    27  23  85 N23       29.75R FOG     WCI  12
ALLIANCE       LGT SNOW  27  25  92 N26G33    29.64R VSB 3/4 WCI  12
SIDNEY         LGT SNOW  28  25  88 NE20      29.60R FOG     WCI  15
WHITECLAY        N/A     26  23  87 NE16        N/A  WCI  14
CRESCENT LAKE    N/A     27  24  88 N17G31      N/A  WCI  14
LISCO            N/A     30  27  86 NW29        N/A  WCI  15
BIG SPRINGS      N/A     34  29  82 NE16        N/A  WCI  24
$$

...OBSERVATIONS IN NORTH CENTRAL NEBRASKA...

CITY           SKY/WX    TMP DP  RH WIND       PRES   REMARKS
VALENTINE      CLOUDY    29  26  89 N17G26    29.68R FOG     WCI  17
THEDFORD       CLOUDY    31  30  95 NE22G30   29.63R FOG     WCI  19
AINSWORTH      CLOUDY    29  28  97 N21G28    29.65R FOG     WCI  16
O`NEILL        CLOUDY    32  31  94 N17       29.64R WCI  21
ORD            CLEAR     37  26  64 N16G23    29.58R WCI  28
BROKEN BOW     PTSUNNY   34  27  75 N15       29.58R WCI  24
BROWNLEE         N/A     29  28  97 N21         N/A  WCI  15
SPRINGVIEW       N/A     30  27  90 NW6G17      N/A  WCI  24
BREWSTER         N/A     33  29  85 NE18        N/A  WCI  22
ROSE             N/A     33  33  99 N17         N/A  WCI  22
SARGENT          N/A     32  28  83 NE6G18      N/A  WCI  26
COMSTOCK         N/A     39  28  65 N15         N/A  WCI  31
CHAMBERS         N/A     32  28  84 N9          N/A  WCI  24
EWING            N/A     34  29  83 CALM        N/A
$$

...OBSERVATIONS IN SOUTHWEST NEBRASKA AND FAR NORTHEAST COLORADO...

CITY           SKY/WX    TMP DP  RH WIND       PRES   REMARKS
WRAY           FAIR      41  29  63 N15G22    29.55R
HOLYOKE        MOCLDY    37  30  75 N20       29.57R WCI  27
IMPERIAL       PTSUNNY   37  26  64 NE20      29.57R WCI  27
OGALLALA       CLOUDY    33  28  83 NE21G29   29.61R WCI  21
NORTH PLATTE   CLOUDY    34  25  69 N18G26    29.59R WCI  23
MCCOOK         SUNNY     42  23  46 NE10      29.53R
LEXINGTON      SUNNY     41  26  55 NE8       29.55R
PAXTON           N/A     33  29  85 N21         N/A  WCI  21
BRADY            N/A     36  28  72 SW3G12      N/A
GOTHENBURG       N/A     38  27  63 N12         N/A  WCI  30
CALLAWAY         N/A     33  28  83 N12         N/A  WCI  24
$$

...NORTH PLATTE AREA...

CITY           SKY/WX    TMP DP  RH WIND       PRES   REMARKS
AIRPORT        CLOUDY    34  25  69 N18G26    29.59R WCI  23
DOWNTOWN         N/A     33  26  76 NW6G16      N/A  WCI  27
$$

...SOME WEATHER OBSERVATIONS FROM AROUND THE REGION...

CITY           SKY/WX    TMP DP  RH WIND       PRES   REMARKS
DENVER         CLOUDY    35  29  78 N14       29.55R WCI  26
LARAMIE        LGT SNOW  21  16  81 NE18      29.52R WCI   6
CHEYENNE       SNOW      24  20  84 N14       29.57R VSB 1/2 WCI  12
SCOTTSBLUFF    LGT SNOW  29  25  85 NE20      29.65R FOG     WCI  16
RAPID CITY     LGT SNOW  25  22  88 N22       29.81R VSB 1   WCI  10
PIERRE         CLOUDY    28  24  85 N17       29.79R WCI  16
WINNER         LGT SNOW  30  27  88 N21       29.73R VSB 1   WCI  17
SIOUX FALLS    CLOUDY    33  28  81 NE18      29.68R WCI  22
OMAHA          PTCLDY    49  32  52 S15       29.63R
GRAND ISLAND   CLEAR     45  26  47 S6        29.56R
KANSAS CITY    CLOUDY    52  29  41 S23G35    29.68R
WICHITA        CLOUDY    54  28  36 S21       29.63R
HAYS           MOSUNNY   55  25  30 S12       29.49R
LIBERAL        CLOUDY    55  21  26 SW16      29.55R
GOODLAND       SUNNY     42  23  46 N17G25    29.51R
$$



USA.gov is the U.S. government's official web portal to all federal, state and local government web resources and services.